{"data":{"norad_id":64125,"intl_designator":"2025-111C","name":"STARLINK-11725 [DTC]","alt_names":[],"object_type":"PAYLOAD","status":"ACTIVE","operator":null,"country":"US","launch_date":"2025-05-24","launch_site_code":"AFETR","launch_vehicle":null,"mission":null,"orbit_class":"UNKNOWN","rcs_meters":null,"size_class":null,"mass_kg":null,"dimensions":null,"purposes":["comms"],"wikipedia_slug":null,"has_3d_model":false,"image_url":null,"decayed_at":null,"tle_current":{"epoch":"2026-09-20T22:13:03.521280Z","epoch_age_seconds":103723,"freshness":"FRESH","line1":"1 64125U 25111C   26263.92573520  .00131890  00000+0  10144-2 0  9993","line2":"2 64125  42.9993 237.1240 0001398 279.6097  80.4613 15.70856035 77349","mean_motion":15.70856035,"eccentricity":0.0001398,"inclination_deg":42.9993,"raan_deg":237.124,"arg_perigee_deg":279.6097,"mean_anomaly_deg":80.4613,"bstar":0.0010144,"rev_number":7734,"period_min":91.669762722718,"perigee_km":355.50773577234,"apogee_km":357.39072608251,"semimajor_km":6734.5862309274,"source":"CELESTRAK","updated_at":"2026-09-21T09:00:35.232711Z"}}}